Location: *
(38.4303°S, 157.0822°W)
Time: 14:07:58
(UTC+00:00)

OAO 2 Rocket - Pass Details

Date: 21 May 2024
Orbit: 672 x 740 km, 35.0° (Epoch: 14 June)

Event Time Altitude Azimuth Distance (km) Brightness Sun altitude
Exits shadow 16:08:13 13° 306° (NW) 1,927 5.2 -15.7°
Maximum altitude 16:12:22 44° 14° (NNE) 941 4.2 -14.9°
Drops below altitude 10° 16:17:03 10° 85° (E) 2,119 7.2 -14.0°
Sets 16:19:33 0° 92° (E) 3,041 8.2 -13.5°
